[[{"header":{"parameterUnit":"m.s-1","parameterCategory":1,"la1":30.2991,"la2":30.254,"lo1":-89.0895,"lo2":-89.0444,"dy":0.0017,"dx":0.0017,"nx":28,"ny":28,"refTime":"2023-07-27T09:00:00:Z","depth":0,"parameterNumber":2,"parameterNumberName":"U-component_of_WINDS"},"data":[0,0,0,0,0,0,0,0,0,0,0,0,0,0,0,0,0,0,0,0,0,0,0,0,0,0,0,0,0,0,0,0,0,0,0,0,0,0,0,0,0,0,0,0,0,0,0,0,0,0,0,0,0,0,0,0,0,0,1.307,1.3069,0,1.2938,1.2937,1.2935,1.2773,1.2771,1.2768,1.2766,1.2629,1.2628,1.2627,0,0,0,0,0,0,0,0,0,0,0,0,0,1.318,1.3179,1.307,1.3068,1.3067,1.2939,1.2937,1.2935,1.2774,1.2771,1.2768,1.2765,1.263,1.2628,1.2627,0,0,0,0,0,0,0,0,0,0,0,0,0,1.3099,1.3179,1.307,1.2971,1.2961,1.2939,1.2937,1.2935,1.2774,1.2771,1.2767,1.2763,1.263,1.2629,1.2627,1.2692,0,0,1.2621,1.262,0,0,0,0,0,0,0,0,1.3104,1.3095,1.2987,1.2978,1.2966,1.2868,1.2926,1.2853,1.2775,1.2845,1.2766,1.2761,1.2712,1.2703,1.2687,1.2685,1.2679,1.2621,1.262,1.2619,1.2618,0,0,0,0,0,0,0,1.311,1.31,1.3018,1.2986,1.2973,1.2932,1.2917,1.2911,1.2802,1.2839,1.2827,1.2813,1.2705,1.2689,1.2682,1.2677,1.2621,1.2619,1.2618,1.2617,1.2722,1.2726,0,0,0,0,0,0,1.3131,1.3106,1.3022,1.3014,1.3027,1.2934,1.2916,1.2904,1.2801,1.2782,1.2817,1.2806,1.2694,1.2685,1.2677,1.2746,1.2619,1.2617,1.2616,1.2718,1.2723,1.2727,0,0,0,0,0,0,1.3134,1.3125,1.3027,1.3057,1.3041,1.2936,1.2923,1.2903,1.2886,1.2785,1.2764,1.282,1.2691,1.268,1.2689,1.2739,1.2616,1.2615,1.2714,1.272,1.2725,1.2885,0,0,0,0,0,0,1.3137,1.3127,1.3151,1.3058,1.304,1.3043,1.2926,1.2903,1.2884,1.2869,1.2782,1.2764,1.2687,1.2693,1.2688,1.2734,1.2613,1.2709,1.2717,1.2723,1.2875,1.2896,1.2913,0,0,0,0,0,1.3142,1.32,1.3153,1.3143,1.3068,1.3046,1.3035,1.2946,1.2888,1.2911,1.2846,1.2767,1.2735,1.2695,1.2688,1.2735,1.2705,1.2714,1.2723,1.2866,1.2892,1.2913,0,0,0,0,0,0,1.33,1.3186,1.3132,1.3162,1.3115,1.3019,1.3044,1.2975,1.2943,1.293,1.2819,1.2801,1.2825,1.278,1.2738,1.2792,1.2708,1.2716,1.282,1.2843,1.2862,1.2872,1.2612,0,0,0,0,0,1.3339,1.3331,1.3232,1.3268,1.3247,1.3151,1.3138,1.3073,1.3019,1.2998,1.2933,1.2884,1.2862,1.285,1.2825,1.2868,1.2846,1.2897,1.2916,1.2932,1.294,1.2959,1.298,1.2756,1.2756,1.2756,0,0,1.3418,1.3355,1.3357,1.3298,1.3254,1.3248,1.3135,1.3133,1.3127,1.2997,1.3002,1.2954,1.2891,1.2918,1.2927,1.2882,1.2997,1.2944,1.2957,1.2956,1.2971,1.2992,1.3011,1.2762,1.2761,1.276,0,0,1.3559,1.3511,1.3536,1.3494,1.3429,1.3365,1.3371,1.3285,1.3248,1.3252,1.3154,1.3146,1.3111,1.307,1.3045,1.3173,1.3099,1.3168,1.3269,1.3289,1.3306,1.3321,1.3367,1.3384,1.3176,1.3177,1.3177,0,1.3666,1.3653,1.3558,1.3562,1.3539,1.3423,1.3447,1.3411,1.3341,1.3328,1.3279,1.3234,1.3183,1.3199,1.323,1.3214,1.3217,1.3177,1.3312,1.3326,1.3338,1.338,1.3398,1.3185,1.3184,1.3184,1.3183,0,1.3787,1.378,1.3808,1.3744,1.3725,1.374,1.3646,1.3638,1.3575,1.3516,1.3521,1.3457,1.3417,1.3416,1.3354,1.3423,1.3397,1.3332,1.3246,1.337,1.3408,1.3423,1.3198,1.3195,1.3192,1.319,0,0,1.4023,1.3907,1.3919,1.3889,1.3809,1.3801,1.3811,1.3772,1.3767,1.3723,1.3728,1.3702,1.3641,1.3613,1.3546,1.3564,1.3669,1.3496,1.3493,1.353,1.3741,1.379,1.381,1.362,1.3623,1.3625,1.3746,0,1.4148,1.4159,1.4073,1.4106,1.4098,1.3988,1.3997,1.3949,1.3894,1.3879,1.3818,1.3802,1.3723,1.3705,1.3718,1.3654,1.371,1.3644,1.3623,1.3623,1.3641,1.3829,1.3881,1.3998,1.376,1.3762,1.3764,0,1.4296,1.4261,1.4294,1.4213,1.4207,1.4216,1.4174,1.4161,1.4105,1.4064,1.4034,1.3957,1.396,1.388,1.3882,1.3839,1.3826,1.3793,1.3795,1.3789,1.3701,1.3827,1.4033,1.405,1.3786,1.3784,1.3783,0,1.4464,1.4426,1.444,1.4417,1.4324,1.4333,1.4294,1.4234,1.4216,1.418,1.4167,1.4132,1.4112,1.4086,1.4002,1.3951,1.4014,1.3926,1.3979,1.3982,1.3997,1.3997,1.4202,1.399,1.399,1.399,1.3989,0,1.4613,1.4637,1.4514,1.4523,1.4547,1.4449,1.4475,1.4425,1.4373,1.437,1.4273,1.4272,1.4162,1.4148,1.4083,1.4095,1.4087,1.4053,1.4035,1.4061,1.4066,1.405,1.4039,1.3994,1.3993,1.3992,1.3992,0,1.4803,1.4722,1.4731,1.4642,1.4621,1.4642,1.4566,1.457,1.451,1.4508,1.4501,1.4407,1.4386,1.4301,1.4259,1.4215,1.4249,1.4214,1.4268,1.4256,1.4314,1.431,1.4516,1.4538,1.4314,1.4316,1.4318,0,1.4903,1.4919,1.4833,1.4824,1.479,1.4778,1.476,1.4665,1.465,1.4587,1.4599,1.4571,1.4543,1.4516,1.4443,1.4411,1.4374,1.4449,1.4369,1.4395,1.4374,1.4374,1.4375,1.4466,1.4469,1.4471,1.4473,0,1.5088,1.5048,1.5026,1.4991,1.4972,1.494,1.4901,1.49,1.4794,1.4782,1.476,1.4739,1.4698,1.4671,1.4627,1.4586,1.4512,1.4499,1.451,1.4536,1.4566,1.455,1.4314,1.4495,1.4492,1.4491,1.449,1.4489,1.5235,1.5245,1.5186,1.5165,1.5126,1.5093,1.5093,1.5034,1.5014,1.4973,1.4919,1.4904,1.4847,1.4781,1.4746,1.4733,1.4692,1.4707,1.4711,1.4716,1.4729,1.457,1.4725,1.4724,1.4724,1.4723,1.4722,0,1.5414,1.5372,1.5354,1.5304,1.5288,1.5221,1.5175,1.5166,1.5155,1.5109,1.5084,1.5059,1.5033,1.496,1.4926,1.493,1.4895,1.4924,1.4922,1.4914,1.4768,1.4762,1.4953,1.4953,1.4953,1.4953,1.4952,1.4952,1.5506,1.5518,1.5471,1.5464,1.542,1.5406,1.5385,1.5354,1.5317,1.5294,1.5273,1.5225,1.5168,1.5129,1.5102,1.5081,1.5073,1.5113,1.5081,1.4946,1.4924,1.4903,1.4897,1.5113,1.5113,1.5227,1.5228,1.5229]},{"header":{"parameterUnit":"m.s-1","parameterCategory":1,"la1":30.2991,"la2":30.254,"lo1":-89.0895,"lo2":-89.0444,"dy":0.0017,"dx":0.0017,"nx":28,"ny":28,"refTime":"2023-07-27T09:00:00:Z","depth":0,"parameterNumber":3,"parameterNumberName":"V-component_of_WINDS"},"data":[0,0,0,0,0,0,0,0,0,0,0,0,0,0,0,0,0,0,0,0,0,0,0,0,0,0,0,0,0,0,0,0,0,0,0,0,0,0,0,0,0,0,0,0,0,0,0,0,0,0,0,0,0,0,0,0,0,0,-1.5868,-1.5867,0,-1.5758,-1.5757,-1.5755,-1.5659,-1.5658,-1.5657,-1.5656,-1.5538,-1.5536,-1.5534,0,0,0,0,0,0,0,0,0,0,0,0,0,-1.599,-1.5989,-1.5868,-1.5867,-1.5865,-1.5758,-1.5756,-1.5755,-1.5659,-1.5658,-1.5657,-1.5655,-1.5539,-1.5537,-1.5534,0,0,0,0,0,0,0,0,0,0,0,0,0,-1.5914,-1.5988,-1.5868,-1.5805,-1.5798,-1.5758,-1.5756,-1.5755,-1.5659,-1.5658,-1.5656,-1.5655,-1.554,-1.5537,-1.5534,-1.5547,0,0,-1.5524,-1.5523,0,0,0,0,0,0,0,0,-1.5919,-1.591,-1.5815,-1.5809,-1.5801,-1.5721,-1.5756,-1.5685,-1.566,-1.5712,-1.5656,-1.5654,-1.56,-1.5592,-1.5575,-1.5541,-1.5536,-1.5524,-1.5522,-1.552,-1.552,0,0,0,0,0,0,0,-1.5924,-1.5914,-1.5824,-1.5814,-1.5805,-1.578,-1.5767,-1.5742,-1.5666,-1.5707,-1.57,-1.5688,-1.5596,-1.5578,-1.5571,-1.5535,-1.5524,-1.5521,-1.5519,-1.5518,-1.5506,-1.5507,0,0,0,0,0,0,-1.594,-1.5919,-1.5828,-1.5821,-1.5857,-1.5779,-1.5765,-1.5748,-1.5666,-1.5652,-1.569,-1.5684,-1.5584,-1.5575,-1.5567,-1.5576,-1.5521,-1.5518,-1.5516,-1.5504,-1.5506,-1.5508,0,0,0,0,0,0,-1.5943,-1.5933,-1.5832,-1.5868,-1.5853,-1.5779,-1.576,-1.5747,-1.5729,-1.5653,-1.5639,-1.5686,-1.5582,-1.5571,-1.5553,-1.5571,-1.5516,-1.5513,-1.5502,-1.5505,-1.5507,-1.5596,0,0,0,0,0,0,-1.5947,-1.5934,-1.594,-1.5869,-1.5852,-1.5822,-1.5762,-1.5746,-1.5724,-1.5716,-1.5646,-1.5633,-1.558,-1.5558,-1.555,-1.5565,-1.5511,-1.55,-1.5503,-1.5506,-1.5591,-1.5601,-1.561,0,0,0,0,0,-1.5952,-1.5968,-1.5941,-1.593,-1.5857,-1.5823,-1.5813,-1.5754,-1.5726,-1.573,-1.5681,-1.5635,-1.5571,-1.5557,-1.5547,-1.5562,-1.5499,-1.5503,-1.5506,-1.5587,-1.5599,-1.561,0,0,0,0,0,0,-1.6041,-1.5958,-1.5926,-1.5921,-1.588,-1.5807,-1.581,-1.5769,-1.5734,-1.5727,-1.5654,-1.5639,-1.5628,-1.5593,-1.5579,-1.557,-1.5528,-1.553,-1.5593,-1.5604,-1.5614,-1.5622,-1.5508,0,0,0,0,0,-1.6061,-1.6042,-1.5969,-1.5971,-1.5952,-1.5885,-1.5868,-1.5826,-1.578,-1.5762,-1.5712,-1.5668,-1.5637,-1.5619,-1.5587,-1.5586,-1.5568,-1.5591,-1.56,-1.5608,-1.5611,-1.5606,-1.5615,-1.552,-1.5519,-1.5519,0,0,-1.61,-1.6052,-1.6044,-1.5988,-1.5951,-1.5932,-1.5871,-1.5853,-1.5837,-1.5758,-1.5738,-1.5701,-1.5646,-1.5637,-1.563,-1.5607,-1.5633,-1.5613,-1.562,-1.5617,-1.5611,-1.562,-1.5628,-1.5522,-1.5521,-1.5521,0,0,-1.6162,-1.6124,-1.6122,-1.6087,-1.6033,-1.5988,-1.5988,-1.5921,-1.5893,-1.5872,-1.5813,-1.5792,-1.5742,-1.5705,-1.568,-1.5729,-1.5684,-1.5721,-1.5769,-1.5766,-1.5773,-1.578,-1.5796,-1.5803,-1.5723,-1.5723,-1.5723,0,-1.6217,-1.6187,-1.6125,-1.6111,-1.6087,-1.6017,-1.6013,-1.5982,-1.592,-1.5904,-1.588,-1.5815,-1.5774,-1.5754,-1.5767,-1.5749,-1.5745,-1.5728,-1.5778,-1.5783,-1.5788,-1.5803,-1.581,-1.5728,-1.5727,-1.5727,-1.5726,0,-1.6257,-1.6237,-1.6241,-1.6185,-1.6161,-1.6152,-1.6088,-1.6072,-1.6032,-1.599,-1.5969,-1.5917,-1.5873,-1.5865,-1.5826,-1.584,-1.5828,-1.5792,-1.5748,-1.5803,-1.5816,-1.5821,-1.5735,-1.5733,-1.5732,-1.573,0,0,-1.6371,-1.6282,-1.6284,-1.6258,-1.6194,-1.6176,-1.6163,-1.6122,-1.6109,-1.6068,-1.6055,-1.6014,-1.5981,-1.5952,-1.5908,-1.5906,-1.5947,-1.5869,-1.5867,-1.5885,-1.5958,-1.5986,-1.5994,-1.5917,-1.5918,-1.5919,-1.5963,0,-1.6422,-1.6397,-1.6341,-1.6333,-1.6313,-1.6246,-1.6235,-1.6194,-1.6154,-1.6129,-1.6084,-1.6056,-1.6014,-1.5997,-1.5992,-1.5943,-1.596,-1.5939,-1.5902,-1.5902,-1.5918,-1.6,-1.6029,-1.6073,-1.5968,-1.5968,-1.5969,0,-1.6477,-1.6443,-1.6433,-1.637,-1.636,-1.6351,-1.6308,-1.6287,-1.6238,-1.6209,-1.6178,-1.6129,-1.6111,-1.6072,-1.6044,-1.6031,-1.6013,-1.5987,-1.5987,-1.5981,-1.5939,-1.5996,-1.6086,-1.6093,-1.5976,-1.5976,-1.5975,0,-1.6561,-1.6512,-1.65,-1.6479,-1.6406,-1.6401,-1.637,-1.6319,-1.6298,-1.626,-1.6246,-1.6206,-1.6184,-1.6154,-1.6095,-1.6072,-1.6074,-1.603,-1.6048,-1.605,-1.6051,-1.6052,-1.6139,-1.6041,-1.604,-1.604,-1.604,0,-1.6623,-1.662,-1.6537,-1.6529,-1.6523,-1.6459,-1.6454,-1.6416,-1.6372,-1.6355,-1.6294,-1.6279,-1.6203,-1.6178,-1.6132,-1.6116,-1.6107,-1.6082,-1.6069,-1.6087,-1.609,-1.6073,-1.6069,-1.6042,-1.6042,-1.6041,-1.6041,0,-1.6715,-1.666,-1.6642,-1.6574,-1.6557,-1.6556,-1.6497,-1.6486,-1.6443,-1.6422,-1.6413,-1.6344,-1.6313,-1.6252,-1.6202,-1.6171,-1.6165,-1.6143,-1.6182,-1.6174,-1.6196,-1.6194,-1.6275,-1.6282,-1.618,-1.6181,-1.6182,0,-1.6758,-1.6754,-1.6687,-1.6672,-1.6644,-1.662,-1.6598,-1.6535,-1.6515,-1.6459,-1.6455,-1.6419,-1.6386,-1.6338,-1.6283,-1.6244,-1.6221,-1.6252,-1.6215,-1.6233,-1.6221,-1.6222,-1.6221,-1.6261,-1.6262,-1.6263,-1.6264,0,-1.684,-1.6813,-1.6785,-1.6748,-1.6725,-1.6692,-1.6656,-1.6647,-1.6574,-1.6554,-1.6522,-1.6497,-1.6447,-1.6412,-1.6366,-1.6331,-1.6285,-1.6277,-1.6278,-1.6296,-1.6318,-1.6306,-1.6204,-1.6275,-1.6274,-1.6273,-1.6272,-1.6272,-1.6908,-1.6902,-1.6853,-1.6824,-1.6791,-1.6759,-1.6746,-1.6702,-1.6674,-1.663,-1.6594,-1.6564,-1.6514,-1.6448,-1.6417,-1.6391,-1.637,-1.6373,-1.6373,-1.6375,-1.6382,-1.6323,-1.6383,-1.6382,-1.6382,-1.6382,-1.6381,0,-1.6986,-1.6953,-1.6927,-1.6879,-1.6856,-1.6817,-1.6775,-1.6758,-1.6734,-1.6692,-1.6662,-1.6625,-1.659,-1.6532,-1.6492,-1.6483,-1.6461,-1.6475,-1.6475,-1.6467,-1.6404,-1.6406,-1.6494,-1.6494,-1.6494,-1.6493,-1.6493,-1.6493,-1.7024,-1.7011,-1.6979,-1.6948,-1.6913,-1.6886,-1.6865,-1.6834,-1.6801,-1.6763,-1.6734,-1.6698,-1.6649,-1.6606,-1.6571,-1.6555,-1.6543,-1.6563,-1.654,-1.6482,-1.6472,-1.6462,-1.6463,-1.6561,-1.6561,-1.6605,-1.6606,-1.6606]}]]